EW3247 Weather Reports


Display with metric or nautical units.
time (UTC)temp
F
wind
direction
speed
MPH
gust
MPH
rain 1hr
in
rain 24hr
in
rain mn
in
humidity
%
barometer
mb
20260505094021 59 86 0.0 2.0 0.00 0.00 0.00 68 1010.7
20260505093051 59 71 0.0 1.0 0.00 0.00 0.00 68 1010.8
20260505092022 60 114 1.0 3.0 0.00 0.00 0.00 67 1010.8
20260505091030 60 58 0.0 1.0 0.00 0.00 0.00 68 1010.8
20260505090022 60 121 0.0 2.0 0.00 0.00 0.00 67 1010.8
20260505085030 60 97 1.0 4.0 0.00 0.00 0.00 66 1010.8
20260505084042 60 100 1.0 2.0 0.00 0.00 0.00 66 1010.8
20260505083030 60 127 1.0 2.0 0.00 0.00 0.00 65 1010.8
20260505082041 61 98 1.0 3.0 0.00 0.00 0.00 64 1010.9
20260505081029 61 138 1.0 4.0 0.00 0.00 0.00 64 1010.8
20260505080023 61 79 0.0 2.0 0.00 0.00 0.00 63 1010.8
20260505075031 61 110 0.0 2.0 0.00 0.00 0.00 63 1010.7
20260505074103 62 145 1.0 3.0 0.00 0.00 0.00 63 1010.7
20260505073030 61 128 1.0 3.0 0.00 0.00 0.00 63 1010.6
20260505072022 61 93 1.0 5.0 0.00 0.00 0.00 63 1010.6
20260505071050 60 77 0.0 2.0 0.00 0.00 0.00 66 1010.6
20260505070021 60 68 0.0 2.0 0.00 0.00 0.00 66 1010.4
20260505065029 60 52 0.0 1.0 0.00 0.00 0.00 67 1010.4
20260505064023 60 82 0.0 1.0 0.00 0.00 0.00 66 1010.5
20260505063031 61 84 0.0 1.0 0.00 0.00 0.00 66 1010.6
20260505062023 60 79 0.0 1.0 0.00 0.00 0.00 67 1010.6
20260505061030 61 81 0.0 2.0 0.00 0.00 0.00 66 1010.7
20260505060022 61 57 0.0 1.0 0.00 0.00 0.00 66 1010.6
20260505055030 62 76 0.0 2.0 0.00 0.00 0.00 64 1010.7
20260505054022 62 98 0.0 2.0 0.00 0.00 0.00 63 1010.7
20260505053018 63 100 0.0 1.0 0.00 0.00 0.00 62 1010.8
20260505052021 63 84 0.0 2.0 0.00 0.00 0.00 62 1010.8
20260505051051 63 93 0.0 3.0 0.00 0.00 0.00 61 1010.9
20260505041030 61 81 0.0 3.0 0.00 0.00 0.00 64 1010.5
20260505040022 60 0.0 0.0 0.00 0.00 0.00 65 1010.6
20260505035029 61 0.0 0.0 0.00 0.00 0.00 64 1010.6
20260505034103 61 0.0 0.0 0.00 0.00 0.00 63 1010.6
20260505033019 62 57 0.0 1.0 0.00 0.00 0.00 61 1010.6
20260505032023 61 74 0.0 3.0 0.00 0.00 0.00 62 1010.5
20260505031031 60 0.0 0.0 0.00 0.00 0.00 62 1010.6
20260505030022 61 0.0 0.0 0.00 0.00 0.00 62 1010.5
20260505025030 61 70 0.0 1.0 0.00 0.00 0.00 61 1010.7
20260505024022 62 0.0 0.0 0.00 0.00 0.00 60 1010.7
20260505023020 63 83 0.0 1.0 0.00 0.00 0.00 57 1010.5
20260505022103 65 81 0.0 1.0 0.00 0.00 0.00 54 1010.5
20260505021031 64 78 0.0 1.0 0.00 0.00 0.00 54 1010.5
20260505020023 65 76 0.0 1.0 0.00 0.00 0.00 53 1010.5
20260505015031 65 88 0.0 2.0 0.00 0.00 0.00 52 1010.4
20260505014022 66 94 1.0 3.0 0.00 0.00 0.00 51 1010.2
20260505013040 67 86 1.0 3.0 0.00 0.00 0.00 49 1010.1
20260505012042 67 88 1.0 3.0 0.00 0.00 0.00 49 1010.1
20260505011030 67 92 0.0 1.0 0.00 0.00 0.00 49 1010.1
20260505010022 67 75 0.0 1.0 0.00 0.00 0.00 49 1010.0
20260505005031 68 91 0.0 2.0 0.00 0.00 0.00 48 1010.0
20260505004023 69 77 0.0 1.0 0.00 0.00 0.00 46 1009.8
20260505003101 69 94 1.0 3.0 0.00 0.00 0.00 45 1009.8
20260505002023 70 121 1.0 5.0 0.00 0.00 0.00 44 1009.9
20260505001031 70 112 0.0 3.0 0.00 0.00 0.00 45 1009.7
20260505000022 70 143 0.0 3.0 0.00 0.00 0.00 44 1009.6
20260504235031 70 109 0.0 1.0 0.00 0.00 0.00 44 1009.7
20260504234022 70 89 1.0 3.0 0.00 0.00 0.00 43 1009.7
20260504233022 71 114 0.0 1.0 0.00 0.00 0.00 42 1009.5
20260504232024 72 88 1.0 6.0 0.00 0.00 0.00 40 1009.5
20260504231031 73 88 1.0 3.0 0.00 0.00 0.00 40 1009.6
20260504230023 74 105 1.0 5.0 0.00 0.00 0.00 38 1009.7
20260504225031 73 140 1.0 2.0 0.00 0.00 0.00 39 1009.6
20260504224023 73 97 1.0 2.0 0.00 0.00 0.00 39 1009.4
20260504223022 73 134 1.0 3.0 0.00 0.00 0.00 38 1009.5
20260504222022 73 131 1.0 4.0 0.00 0.00 0.00 37 1009.4
20260504221030 74 104 1.0 6.0 0.00 0.00 0.00 37 1009.4
20260504220042 74 122 1.0 4.0 0.00 0.00 0.00 37 1009.4
20260504215029 76 106 1.0 5.0 0.00 0.00 0.00 36 1009.5
20260504214023 77 102 1.0 6.0 0.00 0.00 0.00 36 1009.5
20260504213023 77 168 1.0 4.0 0.00 0.00 0.00 35 1009.6
20260504212023 77 125 1.0 4.0 0.00 0.00 0.00 35 1009.7
20260504211031 75 150 1.0 3.0 0.00 0.00 0.00 36 1009.6
20260504210022 75 103 2.0 6.0 0.00 0.00 0.00 36 1009.7
20260504205030 76 143 1.0 3.0 0.00 0.00 0.00 35 1009.7
20260504204024 76 149 1.0 3.0 0.00 0.00 0.00 35 1009.7
20260504203026 76 120 1.0 3.0 0.00 0.00 0.00 35 1009.9
20260504202023 76 113 1.0 5.0 0.00 0.00 0.00 36 1010.1
20260504201051 76 139 1.0 4.0 0.00 0.00 0.00 35 1010.0
20260504200023 77 109 1.0 4.0 0.00 0.00 0.00 35 1010.0
20260504195051 77 252 1.0 3.0 0.00 0.00 0.00 35 1010.2
20260504194042 77 178 1.0 2.0 0.00 0.00 0.00 34 1010.4
20260504193026 75 82 1.0 3.0 0.00 0.00 0.00 37 1010.7
20260504192016 76 138 2.0 5.0 0.00 0.00 0.00 37 1010.9
20260504191030 76 6 1.0 3.0 0.00 0.00 0.00 36 1011.0
20260504190024 76 178 2.0 6.0 0.00 0.00 0.00 36 1011.3
20260504185031 77 185 1.0 3.0 0.00 0.00 0.00 35 1011.3
20260504184024 75 141 1.0 3.0 0.00 0.00 0.00 37 1011.5
20260504183027 74 155 2.0 6.0 0.00 0.00 0.00 36 1011.5
20260504182017 74 154 2.0 7.0 0.00 0.00 0.00 36 1011.7
20260504181030 74 94 1.0 6.0 0.00 0.00 0.00 36 1011.8
20260504180042 74 180 1.0 3.0 0.00 0.00 0.00 34 1012.0
20260504175032 74 136 1.0 3.0 0.00 0.00 0.00 35 1012.1
20260504174024 73 165 1.0 4.0 0.00 0.00 0.00 36 1012.2
20260504173048 73 164 2.0 6.0 0.00 0.00 0.00 35 1012.2
20260504172018 73 167 1.0 3.0 0.00 0.00 0.00 36 1012.3
20260504171031 72 213 1.0 4.0 0.00 0.00 0.00 35 1012.5
20260504151031 68 72 1.0 3.0 0.00 0.00 0.00 39 1013.8
20260504141029 64 153 1.0 3.0 0.00 0.00 0.00 46 1014.0